#timestamp,LO_Frequency,Hit,StdDev 
1512039615.6,286047002.0,N
1512039635.4,286047002.9,N
1512039655.2,286047005.3,N
1512039675.1,286047001.3,N
1512039676.0,286047001.3,N
1512039695.8,286046999.7,N
1512039715.6,286046999.8,N
1512039735.5,286047001.6,N
1512039755.3,286047004.9,N
1512039775.1,286047002.9,N
1512039795.9,286047006.7,N
1512039815.7,286047007.2,Y
1512039835.5,286047005.9,P
1512039855.4,286047001.5,N
1512039875.2,286047005.5,P
1512039895.0,286047005.3,N
1512039895.9,286047005.3,Y
1512039915.8,286047000.3,P
1512039935.6,286047001.1,N
1512039955.4,286047000.8,N
1512039975.3,286046999.8,N
1512039995.1,286047005.6,Y
1512040015.8,286047003.1,P
1512040035.7,286047002.5,N
1512040055.5,286047001.1,N
1512040075.3,286047000.4,N
1512040095.2,286047004.3,Y
1512040115.0,286047000.9,P
1512040115.9,286047000.9,N
1512040135.7,286047002.8,P
1512040155.6,286047001.5,N
1512040175.4,286046998.1,N
1512040195.2,286046998.6,N
1512040215.1,286046998.8,N
1512040216.0,286046998.8,N
1512040235.8,286046997.7,N
1512040255.6,286046997.7,N
1512040275.5,286046997.6,N
1512040295.3,286046996.8,N
1512040315.1,286046997.9,N
1512040335.9,286046994.4,Y
1512040355.7,286046990.4,P
1512040375.5,286046985.7,P
1512040395.4,286046988.2,N
1512040415.2,286046989.5,N
1512040435.0,286046988.9,N
1512040435.9,286046988.9,N
1512040455.8,286046987.3,Y
1512040475.6,286046997.7,P
1512040495.4,286046997.5,N
1512040515.3,286046995.6,N
1512040535.1,286047021.8,Y
1512040536.0,286047021.8,P
1512040555.8,286047046.6,P
1512040575.7,286047031.2,N
1512040595.5,286047016.0,N
1512040615.3,286047009.7,N
1512040635.2,286047008.3,N
1512040655.9,286047005.6,N
1512040675.7,286046998.3,N
1512040695.6,286046994.9,N
1512040715.4,286046996.3,N
1512040735.2,286046993.7,N
1512040755.0,286046994.8,N
1512040755.9,286046994.8,N
1512040775.8,286046992.2,N
1512040795.6,286046998.0,N
1512040815.4,286046994.9,N
1512040835.3,286046992.1,N
1512040855.1,286046994.3,N
1512040875.8,286046992.7,N
1512040895.7,286046993.0,N
1512040915.5,286046991.2,N
1512040935.3,286046987.8,N
1512040955.2,286046986.4,N
1512040975.9,286046986.3,N
1512040995.7,286046984.8,N
1512041015.5,286046982.6,N
1512041035.4,286046982.7,N
1512041055.2,286046981.5,N
1512041075.0,286046983.3,N
1512041075.9,286046983.3,N
1512041095.8,286046982.2,N
1512041115.6,286046984.3,N
1512041135.4,286046982.4,N
1512041155.3,286046982.2,N
1512041175.1,286046984.3,N
1512041195.8,286046985.2,N
1512041215.7,286046982.6,N
1512041235.5,286046982.1,Y
1512041255.3,286046994.2,P
1512041275.2,286046994.2,N
1512041295.9,286046994.8,N
1512041315.7,286046990.3,Y
1512041335.6,286046998.9,P
1512041355.4,286046999.3,N
1512041375.2,286047000.7,N
1512041395.1,286047000.1,N
1512041396.0,286047000.1,N
1512041415.8,286047000.5,N
1512041435.6,286047003.9,N
1512041455.5,286047007.5,N
1512041475.3,286047009.2,N
1512041495.1,286047009.1,N
1512041515.9,286047008.1,N
1512041535.7,286047005.1,N
1512041555.5,286047004.8,N
1512041575.3,286047001.4,N
1512041595.2,286047004.4,N
1512041615.0,286047001.7,N
1512041615.9,286047001.7,N
1512041635.7,286047004.2,N
1512041655.6,286047003.2,N
1512041675.4,286047005.3,N
1512041695.2,286047006.2,N
1512041715.1,286047006.8,N
1512041716.0,286047006.8,N
1512041735.8,286047003.1,N
1512041755.6,286047004.8,N
1512041775.5,286047004.6,N
1512041795.3,286047008.9,N
1512041815.1,286047008.1,N
1512041835.9,286047009.8,N
1512041855.7,286047006.2,N
1512041875.5,286047008.0,N
1512041895.4,286047010.7,Y
1512041915.2,286047003.6,P
1512041935.0,286047005.8,P
1512041935.9,286047005.8,P
1512041955.8,286047005.4,Y
1512041975.6,286047001.0,P
1512041995.4,286047002.6,N
1512042015.3,286046999.8,N
1512042035.1,286047002.4,N
1512042036.0,286047002.4,N
1512042055.8,286047000.0,N
1512042075.6,286047000.4,N
1512042095.5,286047005.5,Y
1512042115.3,286047005.3,P
1512042135.2,286047005.3,N
1512042155.9,286047005.6,P
1512042175.7,286047001.8,N
1512042195.5,286046998.4,N
1512042215.4,286046999.8,N
1512042235.2,286046998.1,N
1512042255.0,286046999.0,N
1512042255.9,286046999.0,N
1512042275.8,286046999.0,N
1512042295.6,286047000.1,N
1512042315.4,286047003.4,N
1512042335.3,286047001.4,N
1512042355.1,286046998.9,N
1512042356.0,286046998.9,N
1512042375.8,286046999.2,N
1512042395.7,286046997.8,N
1512042415.5,286046998.9,N
1512042435.3,286046999.5,N
1512042455.2,286047001.1,N
1512042475.9,286047000.2,N
1512042495.7,286046999.7,N
1512042515.5,286047000.1,N
1512042535.4,286047002.3,N
1512042555.2,286046998.3,N
1512042575.0,286046999.1,N
1512042575.9,286046999.1,N
1512042595.8,286046999.0,N
1512042615.6,286046996.8,N
1512042635.4,286046999.9,N
1512042655.3,286047002.0,N
1512042675.1,286047002.7,N
1512042695.8,286047002.3,N
1512042715.7,286047001.3,N
1512042735.5,286047001.5,N
1512042755.3,286047000.1,N
1512042775.2,286047000.8,N
1512042795.9,286047002.6,N
1512042815.7,286046999.9,N
1512042835.6,286047000.5,N
1512042855.4,286046999.4,N
1512042875.2,286046997.3,N
1512042895.0,286046995.8,N
1512042895.9,286046995.8,N
1512042915.8,286046993.3,Y
1512042935.6,286046996.5,P
1512042955.5,286046998.6,N
1512042975.3,286047000.3,N
1512042995.1,286047001.0,N
1512043015.8,286046998.6,N
1512043035.7,286047000.8,N
1512043055.5,286047000.1,N
1512043075.3,286046998.8,N
1512043095.2,286046998.7,N
1512043115.9,286046997.4,N
1512043135.7,286046997.6,N
1512043155.6,286046993.8,Y
1512043175.4,286046994.9,P
1512043195.2,286046994.1,N
